User: anonymous   Login
Location: Vancouver
(49.2500°N, 123.1330°W)
Time: 21:14:04
(UTC-07:00)
Language:

Iridium 35 - Orbit

View from above orbital plane
View from above orbital plane
View from above satellite
View from above satellite

Ground track
Ground track

The orbit data is extracted from the following two-line orbital elements,

1 24966U 97056B   17114.76219577 +.00000173 +00000-0 +54805-4 0  9999
2 24966 086.3964 341.0434 0002106 085.7366 274.4071 14.34222171024590
Epoch (UTC): 24 April 2017 18:17:33
Eccentricity: 0.0002106
inclination: 86.3964°
perigee height: 776 km
apogee height: 779 km
right ascension of ascending node: 341.0434°
argument of perigee: 85.7366°
revolutions per day: 14.34222171
mean anomaly at epoch: 274.4071°
orbit number at epoch: 2459

The dashed part of the orbit path shows where the satellite is in the earth's shadow,  

DLR